Regional Weather Roundup
Issued by NWS

Home | Current Version | Previous Version | Graphics & Text | Print | Product List | Glossary On
Versions: 1 2 3 4 5 6 7 8 9 10 11 12 13 14 15 16 17 18 19 20 21 22 23 24 25 26 27 28 29 30 31 32 33 34 35 36 37 38 39 40 41 42 43 44 45 46 47 48 49 50
000
ASUS45 KABQ 290610
RWRNM
NEW MEXICO REGIONAL WEATHER ROUNDUP
NATIONAL WEATHER SERVICE ALBUQUERQUE NM
1200 AM MDT SAT APR 29 2017

NOTE: "FAIR" MEANS FEW OR NO CLOUDS BELOW 12,000 FEET AGL WITH NO
       SIGNIFICANT WEATHER OR OBSTRUCTIONS TO VISION.

      THIS PRODUCT IS RELEASED AS TWO VERSIONS.  ONE VERSION NEAR
      THE TOP OF THE HOUR CONTAINING PRELIMINARY DATA FROM ALBUQUERQUE
      AND OTHER STATIONS.  A FINAL VERSION WITH ADDITIONAL DATA IS
      ISSUED ABOUT 10 MINUTES AFTER THE HOUR.

NMZ501-503-504-510>518-290700-
NORTHWEST PLATEAU/NORTHCENTRAL MOUNTAINS

CITY           SKY/WX    TMP DP  RH WIND       PRES   REMARKS
FARMINGTON     FAIR      34  25  69 SW8       29.80F WCI  27
6HR MIN TEMP:  34; 6HR MAX TEMP:  45;

LOS ALAMOS     CLOUDY    35  29  79 CALM      29.83R
SANTA FE       CLOUDY    37  36  96 SW7       29.83R WCI  32
6HR MIN TEMP:  37; 6HR MAX TEMP:  40; 6HR PCP:  0.01;

TAOS             N/A     34  27  75 CALM      29.82R
ANGEL FIRE     CLOUDY    28  27  94 CALM      29.82S

$$
NMZ402-403-502-505>509-290700-
WESTCENTRAL MOUNTAINS/SOUTHWEST MOUNTAINS

CITY           SKY/WX    TMP DP  RH WIND       PRES   REMARKS
GALLUP         FAIR      34  25  69 S5        29.84R WCI  30
6HR MIN TEMP:  33; 6HR MAX TEMP:  43; 6HR PCP: TRACE;

GRANTS         CLOUDY    32  30  94 S3        29.87S
SILVER CITY    MOCLDY    52  28  39 W20G28    29.73F

$$
NMZ407-409-411-412-290700-
SOUTHERN DESERTS

CITY           SKY/WX    TMP DP  RH WIND       PRES   REMARKS
DEMING         LGT RAIN  57  42  57 W9        29.75R
6HR MIN TEMP:  57; 6HR MAX TEMP:  75; 6HR PCP:  0.01;

LAS CRUCES     CLOUDY    52  41  64 N15G24    29.75R
HOLLOMAN AFB   RAIN      48  45  87 N29G36    29.80R
ALAMOGORDO     LGT RAIN  48  45  87 N23G31    29.74R
T OR C         CLOUDY    44  37  76 NE16G28   29.78R
6HR MIN TEMP:  44; 6HR MAX TEMP:  59; 6HR PCP:  0.02;


$$
NMZ519>523-290700-
CENTRAL VALLEYS/CENTRAL HIGHLANDS

CITY           SKY/WX    TMP DP  RH WIND       PRES   REMARKS
ALBUQUERQUE    CLOUDY    39  34  82 SE6       29.85F WCI  35
6HR MIN TEMP:  39; 6HR MAX TEMP:  42; 6HR PCP:  0.03;

MORIARTY ARPT  LGT SNOW  35  34  96 NW13      29.88R WCI  26
6HR MIN TEMP:  34; 6HR MAX TEMP:  36; 6HR PCP:  0.26;

CLINES CORNERS LGT SNOW  32  30  92 NW16      29.85R VSB 1   WCI  21
BELEN          CLOUDY    37  34  88 N5        29.84F WCI  34
6HR MIN TEMP:  37; 6HR MAX TEMP:  41; 6HR PCP:  0.12;

SOCORRO        CLOUDY    38  34  88 N8        29.85F WCI  32
6HR MIN TEMP:  38; 6HR MAX TEMP:  47;


$$
NMZ524>526-539-540-290700-
SOUTHCENTRAL MOUNTAINS

CITY           SKY/WX    TMP DP  RH WIND       PRES   REMARKS
RUIDOSO        CLOUDY    37  37 100 SE8       29.81F WCI  31

$$
NMZ527>531-290700-
NORTHEAST HIGHLANDS/NORTHEAST PLAINS

CITY           SKY/WX    TMP DP  RH WIND       PRES   REMARKS
LAS VEGAS      LGT RAIN  35  33  92 N10       29.82R WCI  27
6HR MIN TEMP:  34; 6HR MAX TEMP:  40; 6HR PCP:  0.05;

RATON          CLOUDY    36  31  82 N16       29.80F WCI  26
6HR MIN TEMP:  36; 6HR MAX TEMP:  42; 6HR PCP:  0.01;

CLAYTON        LGT RAIN  39  39 100 E9        29.84S WCI  33
6HR MIN TEMP:  38; 6HR MAX TEMP:  44; 6HR PCP:  0.38;


$$
NMZ532>537-290700-
EASTCENTRAL PLAINS

CITY           SKY/WX    TMP DP  RH WIND       PRES   REMARKS
SANTA ROSA     HVY RAIN  42  41  97 N12       29.81R
TUCUMCARI      LGT RAIN  47  45  93 NE14      29.76F
6HR MIN TEMP:  46; 6HR MAX TEMP:  55; 6HR PCP:  0.30;

CANNON AFB     CLOUDY    47  47 100 NE25G35   29.73F
6HR MIN TEMP:  47; 6HR MAX TEMP:  56;

CLOVIS AIRPORT CLOUDY    46  39  76 NE24G31   29.76F THUNDER

$$
NMZ028-029-538-290700-
SOUTHEAST PLAINS

CITY           SKY/WX    TMP DP  RH WIND       PRES   REMARKS
ROSWELL        FAIR      51  39  63 NW17        N/A
6HR MIN TEMP:  51; 6HR MAX TEMP:  69;

ARTESIA        FAIR      55  37  50 N14       29.73R
CARLSBAD       FAIR      58  39  49 N18G28    29.70R
6HR MIN TEMP:  58; 6HR MAX TEMP:  87;

HOBBS          FAIR      52  41  66 N23G32    29.64F


$$




USA.gov is the U.S. government's official web portal to all federal, state and local government web resources and services.